[[{"header":{"parameterUnit":"m.s-1","parameterCategory":1,"la1":30.2991,"la2":30.254,"lo1":-89.0895,"lo2":-89.0444,"dy":0.0017,"dx":0.0017,"nx":28,"ny":28,"refTime":"2025-08-06T21:00:00:Z","depth":0,"parameterNumber":2,"parameterNumberName":"U-component_of_WINDS"},"data":[0,0,0,0,0,0,0,0,0,0,0,0,0,0,0,0,0,0,0,0,0,0,0,0,0,0,0,0,0,0,0,0,0,0,0,0,0,0,0,0,0,0,0,0,0,0,0,0,0,0,0,0,0,0,0,0,0,0,-0.1898,-0.1898,0,-0.1864,-0.1863,-0.1863,-0.1841,-0.1841,-0.1841,-0.1841,-0.1808,-0.1807,-0.1807,0,0,0,0,0,0,0,0,0,0,0,0,0,-0.1946,-0.1945,-0.1898,-0.1898,-0.1898,-0.1864,-0.1863,-0.1863,-0.1841,-0.1841,-0.1841,-0.184,-0.1808,-0.1808,-0.1807,0,0,0,0,0,0,0,0,0,0,0,0,0,-0.192,-0.1945,-0.1899,-0.1882,-0.1881,-0.1864,-0.1863,-0.1863,-0.1841,-0.1841,-0.1841,-0.184,-0.1809,-0.1808,-0.1807,-0.1804,0,0,-0.1803,-0.1803,0,0,0,0,0,0,0,0,-0.1922,-0.1918,-0.1885,-0.1884,-0.1881,-0.1856,-0.1868,-0.1843,-0.1841,-0.1856,-0.1841,-0.184,-0.1825,-0.1822,-0.1816,-0.1803,-0.1801,-0.1803,-0.1802,-0.1802,-0.1802,0,0,0,0,0,0,0,-0.1923,-0.192,-0.1885,-0.1885,-0.1882,-0.1877,-0.1873,-0.1864,-0.1842,-0.1855,-0.1853,-0.1849,-0.1824,-0.1817,-0.1815,-0.1801,-0.1803,-0.1802,-0.1801,-0.1801,-0.1781,-0.1781,0,0,0,0,0,0,-0.1927,-0.1921,-0.1886,-0.1884,-0.1901,-0.1877,-0.1872,-0.1865,-0.1842,-0.1838,-0.1849,-0.1848,-0.1819,-0.1817,-0.1814,-0.1808,-0.1802,-0.1801,-0.18,-0.1781,-0.1781,-0.1781,0,0,0,0,0,0,-0.1929,-0.1925,-0.1887,-0.1902,-0.1897,-0.1876,-0.1868,-0.1864,-0.1858,-0.1838,-0.1834,-0.1847,-0.1819,-0.1816,-0.1806,-0.1807,-0.18,-0.1799,-0.1781,-0.1781,-0.1781,-0.1798,0,0,0,0,0,0,-0.193,-0.1925,-0.1924,-0.1902,-0.1896,-0.188,-0.1868,-0.1864,-0.1856,-0.1854,-0.1835,-0.1831,-0.1819,-0.1808,-0.1805,-0.1805,-0.1799,-0.178,-0.1781,-0.1781,-0.1797,-0.1798,-0.1799,0,0,0,0,0,-0.1932,-0.1931,-0.1924,-0.192,-0.1894,-0.188,-0.1876,-0.1861,-0.1856,-0.1854,-0.1841,-0.1832,-0.1807,-0.1807,-0.1804,-0.1804,-0.178,-0.1781,-0.1781,-0.1796,-0.1798,-0.1799,0,0,0,0,0,0,-0.1955,-0.1928,-0.192,-0.1912,-0.1898,-0.1876,-0.1874,-0.1864,-0.1852,-0.1851,-0.1833,-0.1829,-0.182,-0.1811,-0.1811,-0.1799,-0.1793,-0.1792,-0.1805,-0.1807,-0.1808,-0.1811,-0.1798,0,0,0,0,0,-0.1959,-0.1949,-0.1926,-0.1921,-0.1915,-0.1895,-0.1889,-0.1877,-0.1863,-0.1857,-0.1843,-0.183,-0.1819,-0.1813,-0.1801,-0.1795,-0.179,-0.1793,-0.1795,-0.1796,-0.1796,-0.179,-0.1791,-0.1782,-0.1782,-0.1782,0,0,-0.1968,-0.1952,-0.1947,-0.1926,-0.1914,-0.1904,-0.1891,-0.1881,-0.1874,-0.1856,-0.1846,-0.1835,-0.1819,-0.181,-0.1806,-0.1802,-0.1797,-0.1796,-0.1797,-0.1797,-0.179,-0.1791,-0.1792,-0.1782,-0.1782,-0.1782,0,0,-0.1979,-0.1966,-0.1959,-0.1947,-0.1928,-0.1914,-0.1913,-0.1892,-0.1883,-0.1872,-0.1858,-0.1849,-0.1831,-0.1819,-0.1811,-0.1814,-0.1805,-0.1811,-0.1818,-0.1813,-0.1813,-0.1814,-0.1814,-0.1814,-0.1811,-0.1811,-0.1811,0,-0.1992,-0.1976,-0.1958,-0.1948,-0.1939,-0.192,-0.1913,-0.1902,-0.1882,-0.1876,-0.1871,-0.1846,-0.1834,-0.1822,-0.1822,-0.1817,-0.1814,-0.1813,-0.1815,-0.1815,-0.1815,-0.1815,-0.1815,-0.1812,-0.1812,-0.1812,-0.1811,0,-0.1993,-0.1982,-0.1979,-0.1957,-0.1947,-0.1939,-0.1919,-0.1912,-0.1901,-0.1888,-0.1876,-0.186,-0.1845,-0.1841,-0.1831,-0.1827,-0.1825,-0.1818,-0.1811,-0.1817,-0.1817,-0.1817,-0.1813,-0.1813,-0.1812,-0.1812,0,0,-0.2019,-0.1985,-0.1984,-0.1973,-0.195,-0.1941,-0.1931,-0.1915,-0.1908,-0.1894,-0.1885,-0.1868,-0.1861,-0.1852,-0.184,-0.1835,-0.1837,-0.1829,-0.1828,-0.183,-0.183,-0.1835,-0.1835,-0.183,-0.183,-0.183,-0.1831,0,-0.2026,-0.2007,-0.1989,-0.1977,-0.1965,-0.1946,-0.1938,-0.1923,-0.191,-0.1898,-0.1885,-0.1873,-0.1864,-0.1858,-0.1853,-0.1838,-0.1837,-0.1838,-0.1822,-0.1822,-0.1827,-0.1835,-0.1841,-0.1842,-0.1831,-0.1831,-0.1831,0,-0.2032,-0.2016,-0.2002,-0.1977,-0.1972,-0.1964,-0.1946,-0.1936,-0.1918,-0.1908,-0.1896,-0.1884,-0.1872,-0.1866,-0.185,-0.1851,-0.1843,-0.1835,-0.1835,-0.1833,-0.1827,-0.1833,-0.1843,-0.1843,-0.183,-0.183,-0.183,0,-0.2051,-0.2026,-0.2014,-0.2005,-0.1977,-0.1972,-0.196,-0.1941,-0.1931,-0.1916,-0.1909,-0.1893,-0.1884,-0.1872,-0.1855,-0.1852,-0.184,-0.1833,-0.1832,-0.1833,-0.1831,-0.1832,-0.1839,-0.1827,-0.1827,-0.1827,-0.1827,0,-0.206,-0.2052,-0.2022,-0.2015,-0.2005,-0.1984,-0.1975,-0.1961,-0.1944,-0.1934,-0.1917,-0.1907,-0.1885,-0.1873,-0.186,-0.1848,-0.1844,-0.1837,-0.1833,-0.1838,-0.1839,-0.1833,-0.1832,-0.1827,-0.1827,-0.1827,-0.1827,0,-0.2081,-0.206,-0.2045,-0.2018,-0.2011,-0.2005,-0.1982,-0.1974,-0.1959,-0.1946,-0.1942,-0.1919,-0.1903,-0.1885,-0.1864,-0.1855,-0.1844,-0.1839,-0.185,-0.1848,-0.1847,-0.1847,-0.1851,-0.185,-0.1839,-0.1839,-0.1839,0,-0.2088,-0.2081,-0.2052,-0.2043,-0.2031,-0.2017,-0.2006,-0.1985,-0.1975,-0.1952,-0.1946,-0.1929,-0.1914,-0.1891,-0.1872,-0.1856,-0.185,-0.1853,-0.1848,-0.1852,-0.1849,-0.185,-0.1849,-0.1854,-0.1854,-0.1855,-0.1855,0,-0.2102,-0.2092,-0.2077,-0.2057,-0.2044,-0.2028,-0.2012,-0.2005,-0.198,-0.197,-0.1953,-0.1941,-0.1918,-0.1901,-0.1882,-0.187,-0.1858,-0.1856,-0.1855,-0.186,-0.1866,-0.1862,-0.1853,-0.1856,-0.1856,-0.1856,-0.1856,-0.1856,-0.2116,-0.2108,-0.2086,-0.2069,-0.2053,-0.2037,-0.2028,-0.2011,-0.1996,-0.1975,-0.1963,-0.1946,-0.1926,-0.1899,-0.1887,-0.1873,-0.1869,-0.1868,-0.1868,-0.1867,-0.1868,-0.1868,-0.187,-0.187,-0.187,-0.187,-0.187,0,-0.2129,-0.2113,-0.2097,-0.2073,-0.2059,-0.2048,-0.2028,-0.2017,-0.2002,-0.1984,-0.1969,-0.1949,-0.1932,-0.1911,-0.1893,-0.1886,-0.188,-0.1881,-0.1882,-0.1879,-0.1874,-0.1876,-0.1887,-0.1887,-0.1887,-0.1887,-0.1887,-0.1887,-0.2134,-0.2119,-0.2106,-0.2083,-0.2067,-0.2049,-0.2039,-0.2024,-0.2009,-0.1987,-0.1971,-0.1958,-0.1938,-0.1918,-0.1901,-0.1895,-0.1889,-0.1893,-0.1886,-0.1881,-0.188,-0.1878,-0.188,-0.1892,-0.1892,-0.1892,-0.1892,-0.1892]},{"header":{"parameterUnit":"m.s-1","parameterCategory":1,"la1":30.2991,"la2":30.254,"lo1":-89.0895,"lo2":-89.0444,"dy":0.0017,"dx":0.0017,"nx":28,"ny":28,"refTime":"2025-08-06T21:00:00:Z","depth":0,"parameterNumber":3,"parameterNumberName":"V-component_of_WINDS"},"data":[0,0,0,0,0,0,0,0,0,0,0,0,0,0,0,0,0,0,0,0,0,0,0,0,0,0,0,0,0,0,0,0,0,0,0,0,0,0,0,0,0,0,0,0,0,0,0,0,0,0,0,0,0,0,0,0,0,0,-1.4034,-1.4031,0,-1.3755,-1.3752,-1.3748,-1.3633,-1.3634,-1.3634,-1.3635,-1.3336,-1.3328,-1.332,0,0,0,0,0,0,0,0,0,0,0,0,0,-1.4454,-1.4447,-1.4035,-1.4031,-1.4028,-1.3755,-1.3751,-1.3748,-1.3633,-1.3634,-1.3634,-1.3635,-1.3339,-1.3329,-1.3319,0,0,0,0,0,0,0,0,0,0,0,0,0,-1.4233,-1.4445,-1.4035,-1.3938,-1.3926,-1.3756,-1.3751,-1.3747,-1.3633,-1.3634,-1.3635,-1.3635,-1.3342,-1.333,-1.3317,-1.322,0,0,-1.3278,-1.3273,0,0,0,0,0,0,0,0,-1.4246,-1.4218,-1.3955,-1.3944,-1.3931,-1.373,-1.379,-1.3569,-1.3632,-1.3744,-1.3635,-1.3636,-1.3466,-1.3443,-1.3388,-1.3206,-1.3193,-1.3277,-1.3269,-1.3264,-1.326,0,0,0,0,0,0,0,-1.4261,-1.4229,-1.3923,-1.3952,-1.3937,-1.3903,-1.3873,-1.3748,-1.3602,-1.3734,-1.3725,-1.3694,-1.3459,-1.3401,-1.338,-1.3188,-1.3277,-1.3266,-1.3258,-1.3253,-1.2907,-1.2905,0,0,0,0,0,0,-1.4294,-1.4243,-1.3932,-1.3915,-1.4094,-1.3895,-1.3861,-1.3793,-1.3604,-1.3576,-1.3694,-1.369,-1.3422,-1.3395,-1.3369,-1.3239,-1.3264,-1.3252,-1.3245,-1.2908,-1.2907,-1.2905,0,0,0,0,0,0,-1.4304,-1.4268,-1.3943,-1.4076,-1.4032,-1.3887,-1.3812,-1.3787,-1.3729,-1.3573,-1.3545,-1.3662,-1.3422,-1.3387,-1.3257,-1.3227,-1.3246,-1.3235,-1.291,-1.2908,-1.2906,-1.2981,0,0,0,0,0,0,-1.4317,-1.4272,-1.4237,-1.4077,-1.4026,-1.3841,-1.381,-1.3781,-1.3709,-1.3701,-1.3536,-1.3509,-1.342,-1.3277,-1.3245,-1.321,-1.3225,-1.2912,-1.2909,-1.2907,-1.298,-1.2982,-1.2983,0,0,0,0,0,-1.4332,-1.4267,-1.4236,-1.4199,-1.398,-1.384,-1.381,-1.3712,-1.3707,-1.3667,-1.3567,-1.3514,-1.3237,-1.3265,-1.3227,-1.3188,-1.2914,-1.291,-1.2907,-1.298,-1.2981,-1.2983,0,0,0,0,0,0,-1.4424,-1.4245,-1.4208,-1.409,-1.3982,-1.3821,-1.3769,-1.3717,-1.3605,-1.3602,-1.3481,-1.3444,-1.3324,-1.3243,-1.3278,-1.3082,-1.307,-1.3059,-1.3139,-1.3139,-1.314,-1.3161,-1.3214,0,0,0,0,0,-1.4432,-1.4338,-1.4184,-1.4095,-1.4042,-1.3915,-1.3851,-1.3785,-1.3665,-1.3618,-1.3508,-1.3391,-1.3276,-1.3203,-1.309,-1.2969,-1.2928,-1.2923,-1.2924,-1.2926,-1.2917,-1.2842,-1.2837,-1.2894,-1.2894,-1.2894,0,0,-1.4444,-1.4335,-1.4282,-1.411,-1.4018,-1.3919,-1.3877,-1.3774,-1.3697,-1.36,-1.3472,-1.3387,-1.3248,-1.3122,-1.306,-1.305,-1.2892,-1.2921,-1.2924,-1.2913,-1.2838,-1.2833,-1.2829,-1.2891,-1.2892,-1.2892,0,0,-1.4416,-1.4326,-1.4241,-1.415,-1.4012,-1.3928,-1.3908,-1.3754,-1.3695,-1.3565,-1.3489,-1.3394,-1.3201,-1.3104,-1.3029,-1.2963,-1.2908,-1.2929,-1.2933,-1.2862,-1.2858,-1.2853,-1.2826,-1.2818,-1.2921,-1.2921,-1.2921,0,-1.4448,-1.43,-1.4202,-1.4103,-1.4027,-1.3939,-1.3848,-1.3763,-1.3594,-1.3542,-1.3535,-1.3289,-1.3189,-1.3037,-1.3021,-1.2965,-1.2934,-1.2946,-1.2868,-1.2862,-1.2856,-1.2828,-1.2819,-1.2924,-1.2924,-1.2924,-1.2923,0,-1.4344,-1.4242,-1.4189,-1.4032,-1.395,-1.3856,-1.3739,-1.3667,-1.3608,-1.3523,-1.3389,-1.3266,-1.3125,-1.3084,-1.3024,-1.2922,-1.292,-1.2892,-1.2877,-1.2855,-1.2827,-1.2816,-1.2929,-1.2928,-1.2927,-1.2926,0,0,-1.4367,-1.4157,-1.4138,-1.4064,-1.3905,-1.3822,-1.3721,-1.3587,-1.3526,-1.3412,-1.3321,-1.316,-1.3132,-1.3047,-1.2975,-1.2914,-1.2864,-1.2891,-1.2886,-1.2888,-1.274,-1.276,-1.275,-1.2829,-1.2826,-1.2824,-1.275,0,-1.4315,-1.4137,-1.4044,-1.3903,-1.3804,-1.3718,-1.3629,-1.3519,-1.3437,-1.3337,-1.3244,-1.313,-1.3104,-1.3052,-1.2987,-1.2885,-1.2832,-1.2889,-1.2738,-1.2734,-1.2774,-1.2736,-1.2758,-1.2694,-1.2739,-1.2737,-1.2736,0,-1.4232,-1.4122,-1.3972,-1.3822,-1.3777,-1.37,-1.3568,-1.3476,-1.3347,-1.3291,-1.3197,-1.3126,-1.3011,-1.3008,-1.2846,-1.2886,-1.2819,-1.2759,-1.2753,-1.2733,-1.2732,-1.2712,-1.2672,-1.2661,-1.2718,-1.272,-1.2721,0,-1.426,-1.4074,-1.3959,-1.3899,-1.3722,-1.3669,-1.3592,-1.3465,-1.3389,-1.3272,-1.322,-1.3091,-1.3019,-1.2917,-1.2811,-1.2819,-1.2658,-1.2647,-1.2604,-1.2607,-1.2572,-1.2575,-1.2518,-1.2534,-1.2534,-1.2535,-1.2535,0,-1.4211,-1.4122,-1.3969,-1.3898,-1.3794,-1.3686,-1.3584,-1.35,-1.3387,-1.3294,-1.3211,-1.3125,-1.2992,-1.2887,-1.2804,-1.268,-1.2648,-1.2596,-1.2574,-1.2602,-1.2608,-1.2554,-1.2555,-1.2532,-1.2532,-1.2533,-1.2533,0,-1.4224,-1.4119,-1.3988,-1.3832,-1.379,-1.3719,-1.3583,-1.3508,-1.3421,-1.3305,-1.3271,-1.3133,-1.3006,-1.2891,-1.2721,-1.2664,-1.2537,-1.2512,-1.2582,-1.257,-1.2532,-1.2536,-1.2435,-1.2415,-1.2449,-1.2449,-1.2449,0,-1.4199,-1.4129,-1.3965,-1.3899,-1.3825,-1.3719,-1.3641,-1.3531,-1.3453,-1.3301,-1.3243,-1.3111,-1.2999,-1.2798,-1.268,-1.2549,-1.2517,-1.2491,-1.2496,-1.2526,-1.2512,-1.2517,-1.2507,-1.2491,-1.2491,-1.2492,-1.2492,0,-1.4164,-1.4116,-1.401,-1.3884,-1.3795,-1.369,-1.3582,-1.3531,-1.34,-1.3315,-1.3186,-1.31,-1.2927,-1.2795,-1.265,-1.2565,-1.2504,-1.2491,-1.2474,-1.25,-1.2542,-1.2515,-1.2581,-1.2493,-1.2493,-1.2493,-1.2493,-1.2493,-1.4155,-1.4087,-1.3961,-1.3844,-1.3752,-1.3653,-1.3574,-1.3478,-1.337,-1.3223,-1.3164,-1.3031,-1.29,-1.27,-1.2615,-1.2507,-1.2495,-1.2471,-1.2464,-1.2459,-1.2462,-1.2563,-1.248,-1.248,-1.248,-1.248,-1.2479,0,-1.4113,-1.4028,-1.3922,-1.3775,-1.3682,-1.3638,-1.3515,-1.3438,-1.3324,-1.3209,-1.3101,-1.295,-1.2821,-1.2693,-1.2555,-1.2493,-1.2461,-1.246,-1.2462,-1.2442,-1.2482,-1.251,-1.2488,-1.2488,-1.2488,-1.2488,-1.2488,-1.2488,-1.4081,-1.3963,-1.3898,-1.3731,-1.3645,-1.3518,-1.3451,-1.3356,-1.3264,-1.3101,-1.2994,-1.2913,-1.279,-1.2643,-1.252,-1.2485,-1.2437,-1.2443,-1.24,-1.2439,-1.244,-1.244,-1.2465,-1.2434,-1.2434,-1.2368,-1.2368,-1.2367]}]]